AISSAT 2 (40075 NORAD) Tracking and Keplerian Element Data

This shows tracking and keplerian element data for the satellite.

Feedback or suggestion? Click here.




ElementValue
Catalog40075
NameAISSAT 2
Epoch Orbit36999
Epoch Day130.85207441
Epoch Year2021
RAAN338.7309
Inclination98.4483
Eccentricity0.0005539
Argument of Perigee166.2386
Mean Anonmoly193.897
Mean Motion14.82650444
Decay Rate1.76E-06
L11 40075U 14037G 21130.85207441 .00000176 00000-0 29265-4 0 9991
L22 40075 98.4483 338.7309 0005539 166.2386 193.8970 14.82650444369992

Live tracking and technical data element details for AISSAT 2 (NORAD 40075). AISSAT 2 can be tracked NOW for your location showing map with azimuth and elevation plus other details from your city location.

Track the satellite on the map from your city or location and see movement details for azimuth, elevation, latitude, longitude, range, height, and movement on the map or in text.







IsCatalogInMostPopularTable: catalog: 40075, numindb: 24658
Update: records affected: 1



GetName: 40075 AISSAT 2

Hit Count: updated at: Tue, 11 May 2021 20:31:13 GMT